Skip Page Navigation
NASA JPL Caltech
NASA Logo - Jet Propulsion Laboratory + View the NASA Portal
+ Center for Near-Earth Object Studies
JPL Home Earth Solar System Stars & Galaxies Technology
JPL Solar System Dynamics
BODIES ORBITS EPHEMERIDES TOOLS PHYSICAL DATA DISCOVERY FAQ SITE MAP
JPL Small-Body Database Browser
Search: [ help ]  
437371 (2013 VO9)
Classification: Inner Main-belt Asteroid          SPK-ID: 2437371
Ephemeris | Orbit Diagram | Orbital Elements | Mission Design | Physical Parameters | Discovery Circumstances ]

[ show orbit diagram ]
Orbital Elements at Epoch 2459200.5 (2020-Dec-17.0) TDB
Reference: JPL 13 (heliocentric ecliptic J2000)
 Element Value Uncertainty (1-sigma)   Units 
e .08591410396984363 7.3229e-08  
a 1.891520226077639 1.7902e-08 au
q 1.729011960713343 1.3811e-07 au
i 22.73965352734568 1.0032e-05 deg
node 40.43951403672889 1.3579e-05 deg
peri 319.7943911733224 7.98e-05 deg
M 302.2148869727111 8.9388e-05 deg
tp 2459353.020555217575
(2021-May-18.52055522)
0.00023754 TDB
period 950.1997487206976
2.60
1.3489e-05
3.693e-08
d
yr
n .3788677070107484 5.3785e-09 deg/d
Q 2.054028491441936 1.944e-08 au
  Orbit Determination Parameters
   # obs. used (total)      126  
   data-arc span      5943 days (16.27 yr)  
   first obs. used      2004-02-16  
   last obs. used      2020-05-25  
   planetary ephem.      DE441  
   SB-pert. ephem.      SB441-N16  
   condition code      0  
   norm. resid. RMS      .59599  
   source      ORB  
   producer      Otto Matic  
   solution date      2021-Apr-14 14:26:20  

Additional Information
 Earth MOID = .75711 au 
 Jupiter MOID = 3.2161 au 
 T_jup = 3.859 
[ hide covariance matrix ]
Orbital Elements at Epoch 2457935.5 (2017-Jul-01.0) TDB
Reference: JPL 13 (heliocentric ecliptic J2000)
 Element Value Uncertainty (1-sigma)   Units 
e .08579219814036874 7.3242e-08  
q 1.729244457691073 1.3805e-07 au
tp 2458402.873217578442
(2018-Oct-11.37321758)
0.00022785 TDB
node 40.45425828777962 1.3577e-05 deg
peri 319.7607104590599 7.983e-05 deg
i 22.7424669832339 1.0032e-05 deg
  Orbit Determination Parameters
   # obs. used (total)      126  
   data-arc span      5943 days (16.27 yr)  
   first obs. used      2004-02-16  
   last obs. used      2020-05-25  
   planetary ephem.      DE441  
   SB-pert. ephem.      SB441-N16  
   condition code      0  
   norm. resid. RMS      .59599  
   source      ORB  
   producer      Otto Matic  
   solution date      2021-Apr-14 14:26:20  

Additional Information
 Jupiter MOID = 3.2161 au 
 T_jup = 3.859 
Orbit Covariance (6×6)
  e q tp node peri i
e 5.364415855289157E-15 -1.004030898420116E-14 4.144750618674054E-12 -7.002126218549169E-14 1.669289010366576E-12 4.221483761023373E-14
q -1.004030898420116E-14 1.905843439828711E-14 -5.169709946102657E-12 1.115577860644406E-13 -2.26411717245137E-12 -7.768964401575144E-14
tp 4.144750618674054E-12 -5.169709946102657E-12 5.191471326844992E-8 -3.861312989390848E-10 1.791695324091472E-8 4.955615153743823E-11
node -7.002126218549169E-14 1.115577860644406E-13 -3.861312989390848E-10 1.843299824163067E-10 -3.007284649032779E-10 4.488074173048563E-12
peri 1.669289010366576E-12 -2.26411717245137E-12 1.791695324091472E-8 -3.007284649032779E-10 6.372869845466542E-9 1.359802492444803E-11
i 4.221483761023373E-14 -7.768964401575144E-14 4.955615153743823E-11 4.488074173048563E-12 1.359802492444803E-11 1.006463592259602E-10

Ephemeris | Orbit Diagram | Orbital Elements | Mission Design | Physical Parameters | Discovery Circumstances ]

Physical Parameter Table
Parameter Symbol Value Units Sigma Reference Notes
absolute magnitude H 17.94   n/a E2021B25  

437371 (2013 VO9)          Discovered 2005-Sep-06 by Siding Spring Survey at Siding Spring
Reference: Last Updated: 2015-06-04
Ephemeris | Orbit Diagram | Orbital Elements | Mission Design | Physical Parameters | Discovery Circumstances ]
ABOUT SSD CREDITS/AWARDS PRIVACY/COPYRIGHT GLOSSARY LINKS
FirstGov 2021-Apr-16 15:48 UT
(server date/time)  
NASA Home Page
Site Manager:   Ryan S. Park
Webmaster  Alan B. Chamberlin